Regional Weather Roundup
Issued by NWS

Home | Current Version | Previous Version | Text Only | Print | Product List | Glossary On
Versions: 1 2 3 4 5 6 7 8 9 10 11 12 13 14 15 16 17 18 19 20 21 22 23 24 25 26 27 28 29 30 31 32 33 34 35 36 37 38 39 40 41 42 43 44 45 46 47 48 49 50
000
ASUS45 KABQ 290610
RWRNM
WEATHER ROUNDUP FOR NEW MEXICO
NATIONAL WEATHER SERVICE ALBUQUERQUE NM
1100 PM MST WED JAN 28 2015

NOTE: "FAIR" MEANS FEW OR NO CLOUDS BELOW 12,000 FEET AGL WITH NO
       SIGNIFICANT WEATHER OR OBSTRUCTIONS TO VISION.

      THIS PRODUCT IS RELEASED AS TWO VERSIONS.  ONE VERSION NEAR
      THE TOP OF THE HOUR CONTAINING PRELIMINARY DATA FROM ALBUQUERQUE
      AND OTHER STATIONS.  A FINAL VERSION WITH ADDITIONAL DATA IS
      ISSUED ABOUT 10 MINUTES AFTER THE HOUR.

NMZ501-503-504-510>518-290700-
NORTHWEST PLATEAU/NORTHCENTRAL MOUNTAINS

CITY           SKY/WX    TMP DP  RH WIND       PRES   REMARKS
FARMINGTON     CLEAR     33  25  72 E3        30.27S
6HR MIN TEMP:  33; 6HR MAX TEMP:  52;

LOS ALAMOS     MOCLDY    41  24  51 CALM      30.31S
SANTA FE       PTCLDY    40  27  59 N12       30.26F WCI  33
6HR MIN TEMP:  36; 6HR MAX TEMP:  53;

TAOS           CLOUDY    34  25  69 CALM      30.32R
ANGEL FIRE     FAIR      27  24  89 SE5       30.36R WCI  22

$$
NMZ402-403-502-505>509-290700-
WESTCENTRAL MOUNTAINS/SOUTHWEST MOUNTAINS

CITY           SKY/WX    TMP DP  RH WIND       PRES   REMARKS
GALLUP         CLOUDY    36  30  79 CALM      30.30R
6HR MIN TEMP:  33; 6HR MAX TEMP:  54;

GRANTS         CLOUDY    34  30  86 W3        30.30S
SILVER CITY    CLEAR     41  32  70 N12       30.24R

$$
NMZ407-409-411-412-290700-
SOUTHERN DESERTS

CITY           SKY/WX    TMP DP  RH WIND       PRES   REMARKS
LORDSBURG      FAIR      43  32  65 S5        30.19R
DEMING         CLEAR     43  32  65 W6        30.19S
6HR MIN TEMP:  43; 6HR MAX TEMP:  68;

LAS CRUCES     CLEAR     47  38  71 CALM      30.20S
HOLLOMAN AFB   MOCLDY    45  34  65 SW5       30.17R
ALAMOGORDO     PTCLDY    52  32  46 E6        30.18R
T OR C         PTCLDY    49  35  58 N5        30.20R
6HR MIN TEMP:  47; 6HR MAX TEMP:  67;


$$
NMZ519>523-290700-
CENTRAL VALLEYS/CENTRAL HIGHLANDS

CITY           SKY/WX    TMP DP  RH WIND       PRES   REMARKS
ALBUQUERQUE    CLOUDY    48  30  49 W6        30.26R
6HR MIN TEMP:  48; 6HR MAX TEMP:  58;

DOUBLE EAGLE   CLOUDY    42  29  60 N7        30.28R
MORIARTY ARPT  FAIR      34  29  81 CALM      30.29R
6HR MIN TEMP:  32; 6HR MAX TEMP:  54;

CLINES CORNERS MOCLDY    39  28  64 NW13      30.26R WCI  31
6HR MIN TEMP:  35; 6HR MAX TEMP:  49;

BELEN          FAIR      38  30  73 NW6       30.26R WCI  34
6HR MIN TEMP:  37; 6HR MAX TEMP:  60;

SOCORRO        FAIR      44  31  59 N3        30.25R
6HR MIN TEMP:  44; 6HR MAX TEMP:  65;


$$
NMZ524>526-539-540-290700-
SOUTHCENTRAL MOUNTAINS

CITY           SKY/WX    TMP DP  RH WIND       PRES   REMARKS
RUIDOSO        CLEAR     41  28  60 CALM      30.28R

$$
NMZ527>531-290700-
NORTHEAST HIGHLANDS/NORTHEAST PLAINS

CITY           SKY/WX    TMP DP  RH WIND       PRES   REMARKS
LAS VEGAS      PTCLDY    38  26  62 NW8       30.29R WCI  32
6HR MIN TEMP:  37; 6HR MAX TEMP:  55;

RATON          CLOUDY    41  26  55 N13       30.29R
6HR MIN TEMP:  36; 6HR MAX TEMP:  51;

CLAYTON        CLEAR     43  31  62 N14       30.26R
6HR MIN TEMP:  42; 6HR MAX TEMP:  58;


$$
NMZ532>537-290700-
EASTCENTRAL PLAINS

CITY           SKY/WX    TMP DP  RH WIND       PRES   REMARKS
TUCUMCARI      CLOUDY    46  36  68 E5        30.15R
6HR MIN TEMP:  45; 6HR MAX TEMP:  64;

CANNON AFB     MOCLDY    48  34  58 W7        30.15R
6HR MIN TEMP:  44; 6HR MAX TEMP:  63;

CLOVIS AIRPORT MOCLDY    43  34  70 W8        30.15R

$$
NMZ028-029-538-290700-
SOUTHEAST PLAINS

CITY           SKY/WX    TMP DP  RH WIND       PRES   REMARKS
ROSWELL        PTCLDY    46  37  71 N3        30.14R
6HR MIN TEMP:  46; 6HR MAX TEMP:  69;

ARTESIA        PTCLDY    46  41  81 W3        30.15R
CARLSBAD       PTCLDY    55  37  50 W5        30.12R
6HR MIN TEMP:  52; 6HR MAX TEMP:  70;

HOBBS          CLEAR     45  37  76 NW8       30.15S


$$


USA.gov is the U.S. government's official web portal to all federal, state and local government web resources and services.